Flag for United Kingdom Weather past 2 weeks in St Helens, England, United Kingdom

Now
57 °F

Passing clouds.


Feels Like: 57 °F
Forecast: 53 / 61 °F
Wind: 3 mph from North

Location: Liverpool Airport

Current Time: Sep 1, 2015 at 9:10:45 AM

Latest Report: Sep 1, 2015 at 8:20 AM


Visibility: N/A

Pressure: 30.07 "Hg

Humidity: 82%

Dew point: 52 °F

Location of St HelensLocation

Historic Weather in St Helens — Graph

°F

St Helens temperature yesterday

Maximum temperature yesterday: 61 °F (at 11:20 AM)
Minimum temperature yesterday: 55 °F (at 3:50 AM)
Average temperature yesterday: 58 °F

Past Weeks' High & Low Weather Summary

 TemperatureHumidityPressure
High77 °F (Aug 23, 12:20 PM)100% (Aug 18, 4:50 AM)30.12 "Hg (Aug 18, 4:50 AM)
Low52 °F (Aug 24, 5:20 AM)40% (Aug 17, 3:50 PM)29.42 "Hg (Aug 26, 4:50 AM)
Average61 °F82%29.85 "Hg
* Reported Aug 17 7:20 AM — Sep 1 7:50 AM, St Helens, Weather by CustomWeather, © 2015

Note: Actual official high and low records may vary slightly from our data, if they occured in-between our weather recording intervals... More about our weather records

Advertising

St Helens weather history for previous 24 hours

 ConditionsComfort  
Time TempWeatherWind HumidityBarometerVisibility
7:50 AM
Tue, Sep 1
55 °FPassing clouds.3 mph94%30.07 "HgN/A
7:20 AM54 °FScattered showers. Passing clouds.5 mph100%30.07 "HgN/A
6:50 AM54 °FScattered showers. Clear.3 mph100%30.07 "HgN/A
6:20 AM54 °FScattered showers. Passing clouds.5 mph100%30.04 "HgN/A
5:50 AM54 °FScattered showers. Passing clouds.3 mph100%30.04 "HgN/A
4:50 AM55 °FScattered showers. Passing clouds.5 mph100%30.04 "HgN/A
4:20 AM55 °FLight rain. Passing clouds.6 mph94%30.04 "Hg6 mi
3:50 AM54 °FLight rain. Passing clouds.2 mph100%30.07 "Hg6 mi
3:20 AM54 °FLight rain. Passing clouds.5 mph100%30.07 "Hg6 mi
2:50 AM54 °FLight rain. Passing clouds.6 mph94%30.07 "Hg6 mi
2:20 AM55 °FLight rain. Passing clouds.7 mph94%30.07 "Hg6 mi
1:50 AM55 °FHeavy rain. Passing clouds.9 mph94%30.07 "Hg4 mi
1:20 AM55 °FScattered showers. Partly cloudy.7 mph94%30.04 "HgN/A
12:50 AM57 °FScattered showers. Passing clouds.6 mph88%30.04 "HgN/A
12:20 AM55 °FLight rain. Passing clouds.3 mph94%30.04 "HgN/A
11:50 PM
Mon, Aug 31
55 °FLight rain. Passing clouds.6 mph94%30.04 "HgN/A
11:20 PM57 °FLight rain. Passing clouds.6 mph94%30.04 "HgN/A
10:50 PM57 °FScattered showers. Passing clouds.5 mph94%30.04 "HgN/A
10:20 PM59 °FScattered showers. Passing clouds.5 mph88%30.04 "HgN/A
9:50 PM59 °FScattered showers. Partly cloudy.6 mph88%30.04 "HgN/A
9:20 PM59 °FScattered showers. Passing clouds.2 mph94%30.04 "HgN/A
8:50 PM59 °FScattered showers. Scattered clouds.2 mph88%30.04 "HgN/A
8:20 PM57 °FScattered clouds.2 mph94%30.04 "HgN/A
7:50 PM57 °FScattered clouds.2 mph94%30.04 "HgN/A
7:20 PM57 °FScattered clouds.3 mph94%30.04 "HgN/A
6:50 PM57 °FScattered showers. Broken clouds.6 mph94%30.01 "Hg6 mi
6:20 PM57 °FSprinkles. Broken clouds.7 mph94%30.01 "Hg6 mi
5:50 PM59 °FSprinkles. Broken clouds.6 mph88%30.01 "Hg6 mi
5:20 PM59 °FPartly sunny.5 mph88%30.01 "HgN/A
4:50 PM61 °FPartly sunny.6 mph88%30.01 "HgN/A
4:20 PM59 °FScattered showers. Broken clouds.9 mph88%30.01 "HgN/A
3:50 PM59 °FSprinkles. Broken clouds.7 mph94%30.01 "Hg5 mi
3:20 PM59 °FRain. Broken clouds.5 mph94%30.01 "Hg5 mi
2:50 PM59 °FRain. Partly sunny.3 mph88%30.01 "Hg6 mi
2:20 PM59 °FScattered showers. Partly sunny.5 mph88%30.01 "HgN/A
1:50 PM61 °FScattered showers. Partly sunny.5 mph83%30.01 "HgN/A
1:20 PM59 °FPartly sunny.3 mph88%30.01 "HgN/A
12:50 PM59 °FPartly sunny.6 mph88%30.01 "HgN/A
12:20 PM59 °FPartly sunny.6 mph82%30.01 "HgN/A
11:50 AM59 °FPartly sunny.8 mph82%30.01 "HgN/A
11:20 AM61 °FScattered clouds.8 mph83%30.01 "HgN/A
10:50 AM59 °FScattered clouds.7 mph88%30.01 "HgN/A
10:20 AM57 °FPassing clouds.8 mph94%30.01 "HgN/A
9:50 AM57 °FPassing clouds.8 mph88%30.01 "HgN/A
9:20 AM57 °FPassing clouds.7 mph88%30.01 "HgN/A
Weather by CustomWeather, © 2015

See weather overviewHow to use our weather pages